,,Stat5,,Stat1,,Stat2,,Stat3,,Stat4,,Wind1,,Wind1,
time,status,PA1M_AVG,status,PR1M_SUM,status,RH1M_AVG,status,SR1M_AVG,status,TA1M_AVG,status,W1dAve1m,status,W1sAve1m,
2001-02-28, 00:00:00,VALID,919.752,VALID,0,VALID,98.1488,VALID,-0.0849042,VALID,19.0653,VALID,308,VALID,0.105152,
2001-02-28, 00:01:00,VALID,919.757,VALID,0,VALID,98.1869,VALID,-0.0679233,VALID,19.0753,VALID,308,VALID,0,
2001-02-28, 00:02:00,VALID,919.746,VALID,0,VALID,98.2213,VALID,-0.0849042,VALID,19.0981,VALID,308,VALID,0,
2001-02-28, 00:03:00,VALID,919.75,VALID,0,VALID,98.192,VALID,-0.0849042,VALID,19.0979,VALID,308,VALID,0,
2001-02-28, 00:04:00,VALID,919.757,VALID,0,VALID,98.1679,VALID,-0.101885,VALID,19.0887,VALID,308,VALID,0,
2001-02-28, 00:05:00,VALID,919.757,VALID,0,VALID,98.159,VALID,-0.0849042,VALID,19.075,VALID,320,VALID,0.0602385,
2001-02-28, 00:06:00,VALID,919.754,VALID,0,VALID,98.2213,VALID,-0.101885,VALID,19.0919,VALID,352,VALID,0.442023,
2001-02-28, 00:07:00,VALID,919.754,VALID,0,VALID,98.2658,VALID,-0.101885,VALID,19.0917,VALID,358,VALID,0.138622,
2001-02-28, 00:08:00,VALID,919.747,VALID,0,VALID,98.2938,VALID,-0.101885,VALID,19.0917,VALID,358,VALID,0.00861378,
2001-02-28, 00:09:00,VALID,919.725,VALID,0,VALID,98.3192,VALID,-0.0679233,VALID,19.0981,VALID,358,VALID,0.0369141,
2001-02-28, 00:10:00,VALID,919.71,VALID,0,VALID,98.2836,VALID,-0.101885,VALID,19.0815,VALID,75,VALID,0,
2001-02-28, 00:11:00,VALID,919.693,VALID,0,VALID,98.2378,VALID,-0.0509425,VALID,19.0522,VALID,93,VALID,0,
2001-02-28, 00:12:00,VALID,919.652,VALID,0,VALID,98.2429,VALID,-0.0679233,VALID,19.0201,VALID,93,VALID,0,
2001-02-28, 00:13:00,VALID,919.652,VALID,0,VALID,98.248,VALID,-0.0679233,VALID,19.0169,VALID,93,VALID,0,
2001-02-28, 00:14:00,VALID,919.645,VALID,0,VALID,98.2238,VALID,-0.0679233,VALID,18.9814,VALID,93,VALID,0,
2001-02-28, 00:15:00,VALID,919.625,VALID,0,VALID,98.1857,VALID,-0.0679233,VALID,18.9691,VALID,111,VALID,0,
2001-02-28, 00:16:00,VALID,919.611,VALID,0,VALID,98.1997,VALID,-0.0849042,VALID,18.9361,VALID,128,VALID,0.429253,
2001-02-28, 00:17:00,VALID,919.605,VALID,0,VALID,98.323,VALID,-0.0509425,VALID,18.9428,VALID,127,VALID,1.0845,
2001-02-28, 00:18:00,VALID,919.582,VALID,0,VALID,98.4222,VALID,-0.0849042,VALID,18.9749,VALID,128,VALID,1.37541,
2001-02-28, 00:19:00,VALID,919.57,VALID,0,VALID,98.3942,VALID,-0.0679233,VALID,19.0079,VALID,125,VALID,1.52584,
2001-02-28, 00:20:00,VALID,919.569,VALID,0,VALID,98.4031,VALID,-4.62593e-018,VALID,19.0487,VALID,124,VALID,1.22476,
2001-02-28, 00:21:00,VALID,919.572,VALID,0,VALID,98.2887,VALID,0.0509425,VALID,19.0671,VALID,111,VALID,1.04258,
2001-02-28, 00:22:00,VALID,919.584,VALID,0,VALID,98.1043,VALID,0.0339617,VALID,19.087,VALID,106,VALID,0.947483,
2001-02-28, 00:23:00,VALID,919.584,VALID,0,VALID,97.9046,VALID,0.0339617,VALID,19.0544,VALID,107,VALID,0.76242,
2001-02-28, 00:24:00,VALID,919.583,VALID,0,VALID,97.8627,VALID,0.0509425,VALID,19.0415,VALID,109,VALID,0.798109,
2001-02-28, 00:25:00,VALID,919.585,VALID,0,VALID,97.8474,VALID,0.0849042,VALID,19.0154,VALID,111,VALID,0.536859,
2001-02-28, 00:26:00,VALID,919.573,VALID,0,VALID,97.8474,VALID,0.0509425,VALID,18.9861,VALID,116,VALID,0.107813,
2001-02-28, 00:27:00,VALID,919.571,VALID,0,VALID,97.9199,VALID,0.0339617,VALID,18.9998,VALID,134,VALID,0.317107,
2001-02-28, 00:28:00,VALID,919.565,VALID,0,VALID,97.967,VALID,0.0509425,VALID,18.9864,VALID,137,VALID,0.651476,
2001-02-28, 00:29:00,VALID,919.562,VALID,0,VALID,98.0204,VALID,0,VALID,18.9928,VALID,132,VALID,0.830798,
2001-02-28, 00:30:00,VALID,919.551,VALID,0,VALID,97.9962,VALID,0,VALID,18.9836,VALID,123,VALID,0.705181,
2001-02-28, 00:31:00,VALID,919.545,VALID,0,VALID,97.9492,VALID,0,VALID,18.9513,VALID,123,VALID,0.51863,
2001-02-28, 00:32:00,VALID,919.532,VALID,0,VALID,97.9784,VALID,0.0509425,VALID,18.9218,VALID,130,VALID,0.455529,
2001-02-28, 00:33:00,VALID,919.524,VALID,0,VALID,98.0522,VALID,0.0509425,VALID,18.9186,VALID,134,VALID,0.405273,
2001-02-28, 00:34:00,VALID,919.511,VALID,0,VALID,98.0801,VALID,0.0849042,VALID,18.9089,VALID,134,VALID,0.26237,
2001-02-28, 00:35:00,VALID,919.505,VALID,0,VALID,98.089,VALID,0.0339617,VALID,18.8907,VALID,134,VALID,0.0360577,
2001-02-28, 00:36:00,VALID,919.492,VALID,0,VALID,98.0979,VALID,-0.0509425,VALID,18.8656,VALID,119,VALID,0,
2001-02-28, 00:37:00,VALID,919.476,VALID,0,VALID,98.1742,VALID,-0.0339617,VALID,18.8656,VALID,113,VALID,0,
2001-02-28, 00:38:00,VALID,919.467,VALID,0,VALID,98.2391,VALID,-0.0339617,VALID,18.8656,VALID,113,VALID,0,
2001-02-28, 00:39:00,VALID,919.453,VALID,0,VALID,98.2938,VALID,-0.0849042,VALID,18.8653,VALID,115,VALID,0.0160256,
2001-02-28, 00:40:00,VALID,919.438,VALID,0,VALID,98.3751,VALID,-0.0849042,VALID,18.872,VALID,121,VALID,0,
2001-02-28, 00:41:00,VALID,919.42,VALID,0,VALID,98.3879,VALID,-0.0339617,VALID,18.8683,VALID,121,VALID,0,
2001-02-28, 00:42:00,VALID,919.411,VALID,0,VALID,98.3128,VALID,-0.0679233,VALID,18.8462,VALID,120,VALID,0,
2001-02-28, 00:43:00,VALID,919.408,VALID,0,VALID,98.3205,VALID,-0.0679233,VALID,18.8173,VALID,120,VALID,0,
2001-02-28, 00:44:00,VALID,919.388,VALID,0,VALID,98.3573,VALID,-0.0509425,VALID,18.8201,VALID,120,VALID,0.120793,
2001-02-28, 00:45:00,VALID,919.381,VALID,0,VALID,98.3154,VALID,-0.0339617,VALID,18.7873,VALID,120,VALID,0.671094,
2001-02-28, 00:46:00,VALID,919.361,VALID,0,VALID,98.3904,VALID,-0.0509425,VALID,18.7811,VALID,118,VALID,0.647786,
2001-02-28, 00:47:00,VALID,919.344,VALID,0,VALID,98.4616,VALID,-0.0339617,VALID,18.7945,VALID,126,VALID,0.869591,
2001-02-28, 00:48:00,VALID,919.34,VALID,0,VALID,98.4209,VALID,-0.101885,VALID,18.7917,VALID,114,VALID,0.566201,
2001-02-28, 00:49:00,VALID,919.318,VALID,0,VALID,98.4807,VALID,-0.101885,VALID,18.798,VALID,106,VALID,0.527444,
2001-02-28, 00:50:00,VALID,919.302,VALID,0,VALID,98.468,VALID,-0.0509425,VALID,18.8002,VALID,109,VALID,0.191406,
2001-02-28, 00:51:00,VALID,919.296,VALID,0,VALID,98.4413,VALID,0.0169808,VALID,18.7961,VALID,109,VALID,0,
2001-02-28, 00:52:00,VALID,919.267,VALID,0,VALID,98.426,VALID,0.0169808,VALID,18.7968,VALID,109,VALID,0,
2001-02-28, 00:53:00,VALID,919.26,VALID,0,VALID,98.3993,VALID,0.0339617,VALID,18.7901,VALID,109,VALID,0,
2001-02-28, 00:54:00,VALID,919.242,VALID,0,VALID,98.4133,VALID,0.0849042,VALID,18.7834,VALID,109,VALID,0,
2001-02-28, 00:55:00,VALID,919.213,VALID,0,VALID,98.3917,VALID,0.0509425,VALID,18.7836,VALID,111,VALID,0,
2001-02-28, 00:56:00,VALID,919.189,VALID,0,VALID,98.3612,VALID,0.0509425,VALID,18.7668,VALID,186,VALID,0.170072,
2001-02-28, 00:57:00,VALID,919.179,VALID,0,VALID,98.3701,VALID,0.0509425,VALID,18.7603,VALID,214,VALID,0.167578,
2001-02-28, 00:58:00,VALID,919.177,VALID,0,VALID,98.3701,VALID,0.0509425,VALID,18.7645,VALID,214,VALID,0,
2001-02-28, 00:59:00,VALID,919.156,VALID,0,VALID,98.3662,VALID,-0.0169808,VALID,18.7548,VALID,216,VALID,0,
2001-02-28, 01:00:00,VALID,919.149,VALID,0,VALID,98.4018,VALID,0.0169808,VALID,18.7382,VALID,227,VALID,0,
2001-02-28, 01:01:00,VALID,919.131,VALID,0,VALID,98.4311,VALID,0.0509425,VALID,18.7409,VALID,227,VALID,0,
2001-02-28, 01:02:00,VALID,919.139,VALID,0,VALID,98.4642,VALID,0.0339617,VALID,18.7412,VALID,229,VALID,0,
2001-02-28, 01:03:00,VALID,919.133,VALID,0,VALID,98.487,VALID,0.0849042,VALID,18.7412,VALID,229,VALID,0,
2001-02-28, 01:04:00,VALID,919.126,VALID,0,VALID,98.5227,VALID,0.0849042,VALID,18.7349,VALID,229,VALID,0,
2001-02-28, 01:05:00,VALID,919.12,VALID,0,VALID,98.5455,VALID,0.0509425,VALID,18.7345,VALID,229,VALID,0,
2001-02-28, 01:06:00,VALID,919.111,VALID,0,VALID,98.5506,VALID,0.0509425,VALID,18.7248,VALID,229,VALID,0,
2001-02-28, 01:07:00,VALID,919.093,VALID,0,VALID,98.5506,VALID,0.0679233,VALID,18.7086,VALID,229,VALID,0,
2001-02-28, 01:08:00,VALID,919.077,VALID,0,VALID,98.5227,VALID,0.0509425,VALID,18.6893,VALID,229,VALID,0,
2001-02-28, 01:09:00,VALID,919.059,VALID,0,VALID,98.4985,VALID,0.0169808,VALID,18.6607,VALID,229,VALID,0,
2001-02-28, 01:10:00,VALID,919.045,VALID,0,VALID,98.4667,VALID,0,VALID,18.6415,VALID,229,VALID,0,
2001-02-28, 01:11:00,VALID,919.016,VALID,0,VALID,98.4578,VALID,0.0169808,VALID,18.6221,VALID,229,VALID,0,
2001-02-28, 01:12:00,VALID,919.017,VALID,0,VALID,98.5201,VALID,0.0509425,VALID,18.6314,VALID,229,VALID,0,
2001-02-28, 01:13:00,VALID,919.004,VALID,0,VALID,98.5227,VALID,0.0849042,VALID,18.6249,VALID,229,VALID,0,
2001-02-28, 01:14:00,VALID,918.997,VALID,0,VALID,98.5252,VALID,0.0679233,VALID,18.6159,VALID,229,VALID,0,
2001-02-28, 01:15:00,VALID,918.986,VALID,0,VALID,98.5036,VALID,0.0509425,VALID,18.5898,VALID,229,VALID,0,
2001-02-28, 01:16:00,VALID,918.983,VALID,0,VALID,98.5621,VALID,0.0339617,VALID,18.5991,VALID,229,VALID,0,
2001-02-28, 01:17:00,VALID,918.963,VALID,0,VALID,98.604,VALID,0.0339617,VALID,18.6053,VALID,229,VALID,0,
2001-02-28, 01:18:00,VALID,918.959,VALID,0,VALID,98.6091,VALID,0.0849042,VALID,18.6023,VALID,229,VALID,0,
2001-02-28, 01:19:00,VALID,918.942,VALID,0,VALID,98.5621,VALID,0.0339617,VALID,18.5735,VALID,229,VALID,0,
2001-02-28, 01:20:00,VALID,918.934,VALID,0,VALID,98.5672,VALID,-0.0169808,VALID,18.5352,VALID,229,VALID,0,
2001-02-28, 01:21:00,VALID,918.94,VALID,0,VALID,98.5621,VALID,-0.101885,VALID,18.5041,VALID,229,VALID,0,
2001-02-28, 01:22:00,VALID,918.93,VALID,0,VALID,98.5799,VALID,-0.101885,VALID,18.4914,VALID,228,VALID,0,
2001-02-28, 01:23:00,VALID,918.929,VALID,0,VALID,98.6256,VALID,-0.101885,VALID,18.4854,VALID,234,VALID,0,
2001-02-28, 01:24:00,VALID,918.909,VALID,0,VALID,98.6867,VALID,-0.101885,VALID,18.4623,VALID,234,VALID,0.550164,
2001-02-28, 01:25:00,VALID,918.909,VALID,0,VALID,98.7426,VALID,-0.0849042,VALID,18.4921,VALID,230,VALID,0.6873,
2001-02-28, 01:26:00,VALID,918.918,VALID,0,VALID,98.7973,VALID,-0.101885,VALID,18.4948,VALID,239,VALID,0.630859,
2001-02-28, 01:27:00,VALID,918.912,VALID,0,VALID,98.8278,VALID,-0.0849042,VALID,18.4911,VALID,233,VALID,0.624399,
2001-02-28, 01:28:00,VALID,918.891,VALID,0,VALID,98.8444,VALID,0.0339617,VALID,18.4962,VALID,239,VALID,0.4477,
2001-02-28, 01:29:00,VALID,918.888,VALID,0,VALID,98.8253,VALID,0,VALID,18.4867,VALID,240,VALID,0.136719,
2001-02-28, 01:30:00,VALID,918.876,VALID,0,VALID,98.8266,VALID,0,VALID,18.4676,VALID,240,VALID,0,
2001-02-28, 01:31:00,VALID,918.855,VALID,0,VALID,98.8253,VALID,0,VALID,18.4544,VALID,240,VALID,0,
2001-02-28, 01:32:00,VALID,918.857,VALID,0,VALID,98.8177,VALID,0,VALID,18.4288,VALID,240,VALID,0,
2001-02-28, 01:33:00,VALID,918.841,VALID,0,VALID,98.7999,VALID,0,VALID,18.3998,VALID,240,VALID,0,
2001-02-28, 01:34:00,VALID,918.855,VALID,0,VALID,98.8278,VALID,0,VALID,18.3774,VALID,234,VALID,0.125868,
2001-02-28, 01:35:00,VALID,918.858,VALID,0,VALID,98.8978,VALID,-0.0509425,VALID,18.3908,VALID,231,VALID,0.246194,
2001-02-28, 01:36:00,VALID,918.859,VALID,0,VALID,99.0084,VALID,-0.101885,VALID,18.4242,VALID,223,VALID,0.164474,
2001-02-28, 01:37:00,VALID,918.862,VALID,0,VALID,99.0809,VALID,-0.101885,VALID,18.4854,VALID,221,VALID,0,
2001-02-28, 01:38:00,VALID,918.87,VALID,0,VALID,99.0834,VALID,-0.101885,VALID,18.511,VALID,221,VALID,0,
2001-02-28, 01:39:00,VALID,918.864,VALID,0,VALID,99.0618,VALID,-0.101885,VALID,18.5239,VALID,221,VALID,0,
2001-02-28, 01:40:00,VALID,918.857,VALID,0,VALID,99.0478,VALID,-0.118866,VALID,18.508,VALID,215,VALID,0,
2001-02-28, 01:41:00,VALID,918.839,VALID,0,VALID,99.0326,VALID,-0.0849042,VALID,18.5013,VALID,211,VALID,0,
2001-02-28, 01:42:00,VALID,918.824,VALID,0,VALID,98.9881,VALID,-0.0849042,VALID,18.4625,VALID,211,VALID,0,
2001-02-28, 01:43:00,VALID,918.805,VALID,0,VALID,98.9779,VALID,-0.101885,VALID,18.4136,VALID,211,VALID,0,
2001-02-28, 01:44:00,VALID,918.798,VALID,0,VALID,98.9792,VALID,-0.118866,VALID,18.3915,VALID,211,VALID,0,
2001-02-28, 01:45:00,VALID,918.783,VALID,0,VALID,98.9817,VALID,-0.101885,VALID,18.3654,VALID,211,VALID,0,
2001-02-28, 01:46:00,VALID,918.788,VALID,0,VALID,98.9842,VALID,-0.101885,VALID,18.35,VALID,211,VALID,0,
2001-02-28, 01:47:00,VALID,918.777,VALID,0,VALID,98.983,VALID,-0.118866,VALID,18.3338,VALID,211,VALID,0,
2001-02-28, 01:48:00,VALID,918.784,VALID,0,VALID,98.9881,VALID,-0.101885,VALID,18.2911,VALID,211,VALID,0,
2001-02-28, 01:49:00,VALID,918.782,VALID,0,VALID,99.0122,VALID,-0.101885,VALID,18.272,VALID,211,VALID,0,
2001-02-28, 01:50:00,VALID,918.769,VALID,0,VALID,98.9881,VALID,-0.0509425,VALID,18.2683,VALID,211,VALID,0,
2001-02-28, 01:51:00,VALID,918.76,VALID,0,VALID,99.0059,VALID,0,VALID,18.2388,VALID,211,VALID,0,
2001-02-28, 01:52:00,VALID,918.751,VALID,0,VALID,99.0656,VALID,0.0169808,VALID,18.2349,VALID,212,VALID,0,
2001-02-28, 01:53:00,VALID,918.726,VALID,0,VALID,99.1674,VALID,0.0169808,VALID,18.2902,VALID,216,VALID,0,
2001-02-28, 01:54:00,VALID,918.702,VALID,0,VALID,99.2602,VALID,0,VALID,18.3583,VALID,217,VALID,0,
2001-02-28, 01:55:00,VALID,918.699,VALID,0,VALID,99.2945,VALID,0.0339617,VALID,18.4224,VALID,213,VALID,0,
2001-02-28, 01:56:00,VALID,918.671,VALID,0,VALID,99.2793,VALID,0,VALID,18.4519,VALID,209,VALID,0,
2001-02-28, 01:57:00,VALID,918.656,VALID,0,VALID,99.2665,VALID,0,VALID,18.4415,VALID,197,VALID,0,
2001-02-28, 01:58:00,VALID,918.64,VALID,0,VALID,99.2691,VALID,0.0169808,VALID,18.4517,VALID,194,VALID,0,
2001-02-28, 01:59:00,VALID,918.631,VALID,0,VALID,99.3098,VALID,0,VALID,18.4745,VALID,194,VALID,0,
2001-02-28, 02:00:00,VALID,918.62,VALID,0,VALID,99.2818,VALID,0,VALID,18.4969,VALID,190,VALID,0,
2001-02-28, 02:01:00,VALID,918.597,VALID,0,VALID,99.2169,VALID,0.0169808,VALID,18.4547,VALID,195,VALID,0,
2001-02-28, 02:02:00,VALID,918.577,VALID,0,VALID,99.2615,VALID,0,VALID,18.4418,VALID,195,VALID,0,
2001-02-28, 02:03:00,VALID,918.576,VALID,0,VALID,99.2398,VALID,0,VALID,18.4355,VALID,195,VALID,0,
2001-02-28, 02:04:00,VALID,918.581,VALID,0,VALID,99.2195,VALID,0.0339617,VALID,18.4097,VALID,195,VALID,0,
2001-02-28, 02:05:00,VALID,918.589,VALID,0,VALID,99.2424,VALID,0.0169808,VALID,18.4005,VALID,192,VALID,0,
2001-02-28, 02:06:00,VALID,918.594,VALID,0,VALID,99.2551,VALID,-0.0169808,VALID,18.4139,VALID,180,VALID,0.191406,
2001-02-28, 02:07:00,VALID,918.593,VALID,0,VALID,99.2729,VALID,0,VALID,18.4339,VALID,176,VALID,0.946314,
2001-02-28, 02:08:00,VALID,918.583,VALID,0,VALID,99.2729,VALID,-0.0339617,VALID,18.4233,VALID,179,VALID,0.922476,
2001-02-28, 02:09:00,VALID,918.566,VALID,0,VALID,99.2615,VALID,0,VALID,18.4139,VALID,182,VALID,0.871484,
2001-02-28, 02:10:00,VALID,918.561,VALID,0,VALID,99.2271,VALID,-0.0169808,VALID,18.3813,VALID,187,VALID,0.893229,
2001-02-28, 02:11:00,VALID,918.53,VALID,0,VALID,99.2462,VALID,0,VALID,18.3781,VALID,189,VALID,0.794872,
2001-02-28, 02:12:00,VALID,918.507,VALID,0,VALID,99.208,VALID,-0.0169808,VALID,18.3297,VALID,197,VALID,0.60773,
2001-02-28, 02:13:00,VALID,918.481,VALID,0,VALID,99.1852,VALID,0,VALID,18.2978,VALID,192,VALID,0.758013,
2001-02-28, 02:14:00,VALID,918.466,VALID,0,VALID,99.2131,VALID,0,VALID,18.2552,VALID,189,VALID,0.950977,
2001-02-28, 02:15:00,VALID,918.438,VALID,0,VALID,99.2551,VALID,0,VALID,18.2648,VALID,184,VALID,1.05569,
2001-02-28, 02:16:00,VALID,918.426,VALID,0,VALID,99.2678,VALID,-0.0169808,VALID,18.2552,VALID,187,VALID,0.939019,
2001-02-28, 02:17:00,VALID,918.405,VALID,0,VALID,99.2322,VALID,-0.0169808,VALID,18.2323,VALID,175,VALID,0.800781,
2001-02-28, 02:18:00,VALID,918.398,VALID,0,VALID,99.2131,VALID,-0.0169808,VALID,18.1809,VALID,172,VALID,0.932771,
2001-02-28, 02:19:00,VALID,918.375,VALID,0,VALID,99.2297,VALID,-0.0169808,VALID,18.1548,VALID,178,VALID,0.932893,
2001-02-28, 02:20:00,VALID,918.355,VALID,0,VALID,99.2627,VALID,0,VALID,18.146,VALID,178,VALID,0.910857,
2001-02-28, 02:21:00,VALID,918.341,VALID,0,VALID,99.306,VALID,-0.0169808,VALID,18.153,VALID,189,VALID,1.03633,
2001-02-28, 02:22:00,VALID,918.309,VALID,0,VALID,99.3568,VALID,-0.0339617,VALID,18.1622,VALID,196,VALID,1.00586,
2001-02-28, 02:23:00,VALID,918.307,VALID,0,VALID,99.3746,VALID,-0.0169808,VALID,18.194,VALID,205,VALID,0.533854,
2001-02-28, 02:24:00,VALID,918.29,VALID,0,VALID,99.3581,VALID,0,VALID,18.1783,VALID,202,VALID,0.417558,
2001-02-28, 02:25:00,VALID,918.289,VALID,0,VALID,99.3734,VALID,-0.0509425,VALID,18.1816,VALID,204,VALID,0.414263,
2001-02-28, 02:26:00,VALID,918.293,VALID,0,VALID,99.3835,VALID,0,VALID,18.1915,VALID,199,VALID,0.467578,
2001-02-28, 02:27:00,VALID,918.28,VALID,0,VALID,99.4179,VALID,-0.0339617,VALID,18.2039,VALID,202,VALID,0.621995,
2001-02-28, 02:28:00,VALID,918.293,VALID,0,VALID,99.4509,VALID,0,VALID,18.2233,VALID,219,VALID,0.425564,
2001-02-28, 02:29:00,VALID,918.28,VALID,0,VALID,99.4675,VALID,-0.0169808,VALID,18.2489,VALID,220,VALID,0.914679,
2001-02-28, 02:30:00,VALID,918.258,VALID,0,VALID,99.4636,VALID,-0.0169808,VALID,18.2688,VALID,213,VALID,0.956826,
2001-02-28, 02:31:00,VALID,918.248,VALID,0,VALID,99.4827,VALID,-0.0679233,VALID,18.2817,VALID,221,VALID,1.10236,
2001-02-28, 02:32:00,VALID,918.231,VALID,0,VALID,99.4675,VALID,0,VALID,18.2844,VALID,228,VALID,0.946314,
2001-02-28, 02:33:00,VALID,918.225,VALID,0,VALID,99.4713,VALID,0,VALID,18.2916,VALID,216,VALID,0.8875,
2001-02-28, 02:34:00,VALID,918.21,VALID,0,VALID,99.4789,VALID,-0.0169808,VALID,18.2851,VALID,216,VALID,1.11155,
2001-02-28, 02:35:00,VALID,918.199,VALID,0,VALID,99.484,VALID,-0.0339617,VALID,18.2914,VALID,222,VALID,1.31971,
2001-02-28, 02:36:00,VALID,918.185,VALID,0,VALID,99.4802,VALID,-0.0169808,VALID,18.2914,VALID,214,VALID,1.24568,
2001-02-28, 02:37:00,VALID,918.183,VALID,0,VALID,99.4853,VALID,-0.0509425,VALID,18.275,VALID,218,VALID,1.15124,
2001-02-28, 02:38:00,VALID,918.188,VALID,0,VALID,99.484,VALID,-0.0169808,VALID,18.2683,VALID,214,VALID,1.0168,
2001-02-28, 02:39:00,VALID,918.179,VALID,0,VALID,99.4776,VALID,-0.0169808,VALID,18.2519,VALID,216,VALID,0.955929,
2001-02-28, 02:40:00,VALID,918.174,VALID,0,VALID,99.4954,VALID,-0.0339617,VALID,18.2588,VALID,208,VALID,0.906901,
2001-02-28, 02:41:00,VALID,918.165,VALID,0,VALID,99.5056,VALID,-0.0169808,VALID,18.2558,VALID,213,VALID,0.951686,
2001-02-28, 02:42:00,VALID,918.151,VALID,0,VALID,99.5107,VALID,0,VALID,18.2655,VALID,218,VALID,1.66571,
2001-02-28, 02:43:00,VALID,918.141,VALID,0,VALID,99.5145,VALID,0,VALID,18.2591,VALID,217,VALID,1.27804,
2001-02-28, 02:44:00,VALID,918.144,VALID,0,VALID,99.5234,VALID,0,VALID,18.2692,VALID,215,VALID,1.27524,
2001-02-28, 02:45:00,VALID,918.133,VALID,0,VALID,99.5527,VALID,0,VALID,18.2752,VALID,218,VALID,1.71602,
2001-02-28, 02:46:00,VALID,918.133,VALID,0,VALID,99.5666,VALID,-0.0339617,VALID,18.2844,VALID,228,VALID,1.28581,
2001-02-28, 02:47:00,VALID,918.115,VALID,0,VALID,99.5514,VALID,-0.0169808,VALID,18.2879,VALID,220,VALID,1.32732,
2001-02-28, 02:48:00,VALID,918.108,VALID,0,VALID,99.5666,VALID,0,VALID,18.2944,VALID,231,VALID,1.5074,
2001-02-28, 02:49:00,VALID,918.093,VALID,0,VALID,99.5768,VALID,-0.0169808,VALID,18.3038,VALID,219,VALID,1.23217,
2001-02-28, 02:50:00,VALID,918.087,VALID,0,VALID,99.5819,VALID,-0.0509425,VALID,18.3172,VALID,230,VALID,1.49121,
2001-02-28, 02:51:00,VALID,918.091,VALID,0,VALID,99.601,VALID,-0.0339617,VALID,18.3303,VALID,230,VALID,1.45893,
2001-02-28, 02:52:00,VALID,918.097,VALID,0,VALID,99.5857,VALID,0,VALID,18.3234,VALID,238,VALID,0.969401,
2001-02-28, 02:53:00,VALID,918.096,VALID,0,VALID,99.5883,VALID,0,VALID,18.3237,VALID,234,VALID,1.20025,
2001-02-28, 02:54:00,VALID,918.097,VALID,0,VALID,99.5921,VALID,-0.0509425,VALID,18.3105,VALID,228,VALID,1.52529,
2001-02-28, 02:55:00,VALID,918.089,VALID,0,VALID,99.6048,VALID,-0.0509425,VALID,18.314,VALID,219,VALID,1.99219,
2001-02-28, 02:56:00,VALID,918.08,VALID,0,VALID,99.6048,VALID,-0.0169808,VALID,18.3207,VALID,224,VALID,1.84295,
2001-02-28, 02:57:00,VALID,918.078,VALID,0,VALID,99.6061,VALID,-0.0339617,VALID,18.3269,VALID,227,VALID,1.79199,
2001-02-28, 02:58:00,VALID,918.068,VALID,0,VALID,99.6239,VALID,-0.0339617,VALID,18.3301,VALID,230,VALID,1.3457,
2001-02-28, 02:59:00,VALID,918.038,VALID,0,VALID,99.6277,VALID,-0.0169808,VALID,18.34,VALID,231,VALID,1.88301,
2001-02-28, 03:00:00,VALID,918.028,VALID,0,VALID,99.6315,VALID,-0.0849042,VALID,18.3497,VALID,229,VALID,1.39042,
2001-02-28, 03:01:00,VALID,918.007,VALID,0,VALID,99.6315,VALID,-0.0339617,VALID,18.3495,VALID,231,VALID,1.29547,
2001-02-28, 03:02:00,VALID,917.983,VALID,0,VALID,99.6468,VALID,-0.0509425,VALID,18.3691,VALID,228,VALID,1.77012,
2001-02-28, 03:03:00,VALID,917.974,VALID,0,VALID,99.6455,VALID,-0.0509425,VALID,18.3853,VALID,229,VALID,1.53946,
2001-02-28, 03:04:00,VALID,917.964,VALID,0,VALID,99.6633,VALID,-0.0679233,VALID,18.4079,VALID,231,VALID,1.55187,
2001-02-28, 03:05:00,VALID,917.958,VALID,0,VALID,99.6556,VALID,-0.0169808,VALID,18.427,VALID,225,VALID,1.49342,
2001-02-28, 03:06:00,VALID,917.942,VALID,0,VALID,99.6569,VALID,0.0339617,VALID,18.4132,VALID,223,VALID,1.15502,
2001-02-28, 03:07:00,VALID,917.93,VALID,0,VALID,99.6671,VALID,0.0169808,VALID,18.4032,VALID,227,VALID,1.51302,
2001-02-28, 03:08:00,VALID,917.923,VALID,0,VALID,99.6658,VALID,0.0169808,VALID,18.4162,VALID,232,VALID,1.29808,
2001-02-28, 03:09:00,VALID,917.908,VALID,0,VALID,99.6607,VALID,0.0169808,VALID,18.4032,VALID,229,VALID,1.28594,
2001-02-28, 03:10:00,VALID,917.916,VALID,0,VALID,99.6696,VALID,0.0169808,VALID,18.4129,VALID,231,VALID,1.07487,
2001-02-28, 03:11:00,VALID,917.908,VALID,0,VALID,99.6709,VALID,0.0339617,VALID,18.4231,VALID,231,VALID,1.05729,
2001-02-28, 03:12:00,VALID,917.907,VALID,0,VALID,99.6798,VALID,0.0169808,VALID,18.4323,VALID,233,VALID,1.32052,
2001-02-28, 03:13:00,VALID,917.905,VALID,0,VALID,99.6671,VALID,0,VALID,18.4584,VALID,230,VALID,1.39103,
2001-02-28, 03:14:00,VALID,917.896,VALID,0,VALID,99.6646,VALID,0.0169808,VALID,18.445,VALID,220,VALID,1.15664,
2001-02-28, 03:15:00,VALID,917.892,VALID,0,VALID,99.6569,VALID,0.0339617,VALID,18.4226,VALID,230,VALID,1.01422,
2001-02-28, 03:16:00,VALID,917.909,VALID,0,VALID,99.6455,VALID,-0.0169808,VALID,18.4166,VALID,235,VALID,0.790799,
2001-02-28, 03:17:00,VALID,917.91,VALID,0,VALID,99.6404,VALID,-0.0339617,VALID,18.3869,VALID,237,VALID,1.27138,
2001-02-28, 03:18:00,VALID,917.909,VALID,0,VALID,99.6455,VALID,0.0169808,VALID,18.3871,VALID,229,VALID,1.02323,
2001-02-28, 03:19:00,VALID,917.903,VALID,0,VALID,99.6493,VALID,0,VALID,18.3933,VALID,215,VALID,0.938301,
2001-02-28, 03:20:00,VALID,917.901,VALID,0,VALID,99.6468,VALID,0.0169808,VALID,18.3906,VALID,239,VALID,0.897436,
2001-02-28, 03:21:00,VALID,917.893,VALID,0,VALID,99.6404,VALID,0,VALID,18.3873,VALID,237,VALID,0.985547,
2001-02-28, 03:22:00,VALID,917.881,VALID,0,VALID,99.6544,VALID,0.0169808,VALID,18.3903,VALID,230,VALID,1.34918,
2001-02-28, 03:23:00,VALID,917.881,VALID,0,VALID,99.6633,VALID,-0.0169808,VALID,18.3931,VALID,219,VALID,0.927684,
2001-02-28, 03:24:00,VALID,917.88,VALID,0,VALID,99.6378,VALID,0,VALID,18.3769,VALID,244,VALID,0.366571,
2001-02-28, 03:25:00,VALID,917.87,VALID,0,VALID,99.6429,VALID,0.0169808,VALID,18.3679,VALID,270,VALID,0.203325,
2001-02-28, 03:26:00,VALID,917.862,VALID,0,VALID,99.6289,VALID,0.0169808,VALID,18.3518,VALID,235,VALID,0.369336,
2001-02-28, 03:27:00,VALID,917.863,VALID,0,VALID,99.6239,VALID,0,VALID,18.3354,VALID,238,VALID,0.268429,
2001-02-28, 03:28:00,VALID,917.85,VALID,0,VALID,99.6111,VALID,0.0339617,VALID,18.29,VALID,205,VALID,0.0737847,
2001-02-28, 03:29:00,VALID,917.83,VALID,0,VALID,99.62,VALID,0,VALID,18.2743,VALID,170,VALID,0.191612,
2001-02-28, 03:30:00,VALID,917.814,VALID,0,VALID,99.6391,VALID,0,VALID,18.2773,VALID,226,VALID,0.394737,
2001-02-28, 03:31:00,VALID,917.797,VALID,0,VALID,99.6404,VALID,0.0339617,VALID,18.2676,VALID,195,VALID,0.302885,
2001-02-28, 03:32:00,VALID,917.78,VALID,0,VALID,99.6442,VALID,0.0339617,VALID,18.2644,VALID,230,VALID,0.744191,
2001-02-28, 03:33:00,VALID,917.76,VALID,0,VALID,99.6531,VALID,0.0339617,VALID,18.2741,VALID,180,VALID,0.508594,
2001-02-28, 03:34:00,VALID,917.754,VALID,0,VALID,99.6328,VALID,0.0849042,VALID,18.2413,VALID,145,VALID,0.592014,
2001-02-28, 03:35:00,VALID,917.742,VALID,0,VALID,99.6582,VALID,0.0509425,VALID,18.2312,VALID,148,VALID,0.73097,
2001-02-28, 03:36:00,VALID,917.738,VALID,0,VALID,99.6378,VALID,0.0339617,VALID,18.2219,VALID,127,VALID,0.68051,